Address 0xc0c0b124a3806e604afeae8c1215ef18b6811186 11

Txn Hash Method
Block
From
To
Value [Txn Fee]
0xa566112ac22287ccf4b49fcab936a200a9b4cc515088e6418d9e1ee773ce6d350x6549920d139713662022-09-26 3:24:341 day 23 hrs ago0xc0c0b124a3806e604afeae8c1215ef18b6811186OUT0x2e1d0c56c6913fd6135f887080f7a14123a142a80 AVAX0.064629100
0x13b48e5a5cb10a3faf28640079c2f4d4bc7e4569d9bb8c2a33e014edbd30a1bb0xbef1e500139697982022-09-26 2:56:241 day 23 hrs ago0xc0c0b124a3806e604afeae8c1215ef18b6811186OUT0x2e1d0c56c6913fd6135f887080f7a14123a142a80 AVAX0.026724100
0x10007c1aec55d620c0670690dce236ee5f323a0fa939b5240ee64b3993219f830x6549920d139689992022-09-26 2:42:211 day 23 hrs ago0xc0c0b124a3806e604afeae8c1215ef18b6811186OUT0x2e1d0c56c6913fd6135f887080f7a14123a142a80 AVAX0.0638322100
0x97b9c10208387b0ba5a184736ad8587d28824744937a04374f77f027a83a45680xbef1e500139676502022-09-26 2:18:452 days 15 mins ago0xc0c0b124a3806e604afeae8c1215ef18b6811186OUT0x2e1d0c56c6913fd6135f887080f7a14123a142a80 AVAX0.026724100
0xf4fe9c34f0dbd5d2f8c93ba6d3e34d0007a1859ed077739027d4d3a0eb5aa83d0x6549920d139665112022-09-26 1:58:562 days 35 mins ago0xc0c0b124a3806e604afeae8c1215ef18b6811186OUT0x2e1d0c56c6913fd6135f887080f7a14123a142a80 AVAX0.0649219100
0xe182ce8aabd7cf20b88495ee435e18ea889c92cb8a07382f82844967b60fc2b00xbef1e500139654522022-09-26 1:40:352 days 53 mins ago0xc0c0b124a3806e604afeae8c1215ef18b6811186OUT0x2e1d0c56c6913fd6135f887080f7a14123a142a80 AVAX0.028434100
0xffbe84a294790155b03e2251c1b92d79ecfb0b102254b4b97f2b54ba435e824d0x6549920d139640452022-09-26 1:15:522 days 1 hr ago0xc0c0b124a3806e604afeae8c1215ef18b6811186OUT0x2e1d0c56c6913fd6135f887080f7a14123a142a80 AVAX0.066339100
0x8e0d79d0275b9fdae6a89df769d08fc4271f121b6ece9026bd59c8e82c7910240x6549920d139617862022-09-26 0:33:222 days 2 hrs ago0xc0c0b124a3806e604afeae8c1215ef18b6811186OUT0x2e1d0c56c6913fd6135f887080f7a14123a142a80 AVAX0.0655422100
0x644b5e3b8827ed15376c52a707b04174d898a330e1f9e837f6b37bff38f96b930x6549920d139595122022-09-25 23:52:002 days 2 hrs ago0xc0c0b124a3806e604afeae8c1215ef18b6811186OUT0x2e1d0c56c6913fd6135f887080f7a14123a142a80 AVAX0.0649219100
0x32fb5c0802c416cf8a9263031ac0ab433178c784b91ce3e128b289b49eb1c97b0x6549920d139572132022-09-25 23:08:572 days 3 hrs ago0xc0c0b124a3806e604afeae8c1215ef18b6811186OUT0x2e1d0c56c6913fd6135f887080f7a14123a142a80 AVAX0.068049100
0x53ae4b9d7f3e0161e634742cb454fcc6004d583736d55d37fa2c185bdaa18f360x6549920d139549042022-09-25 22:25:522 days 4 hrs ago0xc0c0b124a3806e604afeae8c1215ef18b6811186OUT0x2e1d0c56c6913fd6135f887080f7a14123a142a80 AVAX0.0655422100
0xafcd1283823f5984d6ff7db04f7a97b200782077eae83fef4d9eac4c4d5031530x6549920d139525842022-09-25 21:43:022 days 4 hrs ago0xc0c0b124a3806e604afeae8c1215ef18b6811186OUT0x2e1d0c56c6913fd6135f887080f7a14123a142a80 AVAX0.0649219100
0x4ac2d5b771678d6ce52e4e9ff15d44d2064e94d9668287d5addd89fdfce66f120x6549920d139502652022-09-25 20:59:392 days 5 hrs ago0xc0c0b124a3806e604afeae8c1215ef18b6811186OUT0x2e1d0c56c6913fd6135f887080f7a14123a142a80 AVAX0.068049100
0xb444c4398acb26e2c5c1c9e021da96b2e70f94ae582ec64a78e8728d90a774670x6549920d139478852022-09-25 20:14:512 days 6 hrs ago0xc0c0b124a3806e604afeae8c1215ef18b6811186OUT0x2e1d0c56c6913fd6135f887080f7a14123a142a80 AVAX0.0655422100
0xaa5f68aaf91c8172dbcd1dbe04a76a710982cf32824070dbf905246d92827f63Harvest139464032022-09-25 19:47:062 days 6 hrs ago0xc0c0b124a3806e604afeae8c1215ef18b6811186OUT0x951accccfdf619d3cd8cfe0e4823d8e80354eb410 AVAX0.00647100
0xdf16b6b0f0f2351ea84d88e6f7cc647bd0cf5397da660900558610cc5a406a940x6549920d139455402022-09-25 19:31:102 days 7 hrs ago0xc0c0b124a3806e604afeae8c1215ef18b6811186OUT0x2e1d0c56c6913fd6135f887080f7a14123a142a80 AVAX0.0649219100
0xb826463e86fdf10066c9f76c8ab31c4a3d08ad29a709135bb6f8ebc3c151153fHarvest139442152022-09-25 19:06:302 days 7 hrs ago0xc0c0b124a3806e604afeae8c1215ef18b6811186OUT0x951accccfdf619d3cd8cfe0e4823d8e80354eb410 AVAX0.0081923100
0xeeed8edf41f1e728b9c0b13eeb806bc2796b2d2e1e622a340246a5cd8a7c72a20x6549920d139431232022-09-25 18:45:052 days 7 hrs ago0xc0c0b124a3806e604afeae8c1215ef18b6811186OUT0x2e1d0c56c6913fd6135f887080f7a14123a142a80 AVAX0.068049100
0x853e80e4521a02f73d953c06bd3368c5cd8d1a6368c15608bdaf1232c47a5ed5Harvest139420032022-09-25 18:24:022 days 8 hrs ago0xc0c0b124a3806e604afeae8c1215ef18b6811186OUT0x951accccfdf619d3cd8cfe0e4823d8e80354eb410 AVAX0.00647100
0x00846dc38567e987700b1264e29ee4f75dc52b9afa208ac606e2e793978e4c1d0x6549920d139407392022-09-25 17:59:012 days 8 hrs ago0xc0c0b124a3806e604afeae8c1215ef18b6811186OUT0x2e1d0c56c6913fd6135f887080f7a14123a142a80 AVAX0.0672522100
0x999486a9c52a18f2d5d21ab7d78cb37c9b39c19bf5e597b01d1bb98d3bf27023Harvest139398032022-09-25 17:40:262 days 8 hrs ago0xc0c0b124a3806e604afeae8c1215ef18b6811186OUT0x951accccfdf619d3cd8cfe0e4823d8e80354eb410 AVAX0.0081923100
0xe9298af6f622e3938b8fcc7b85c8771514496ccb42939185ed81d055c45c5afa0x6549920d139382862022-09-25 17:11:032 days 9 hrs ago0xc0c0b124a3806e604afeae8c1215ef18b6811186OUT0x2e1d0c56c6913fd6135f887080f7a14123a142a80 AVAX0.0666319100
0x8f3245778b5d64057d6e414c02a8182718b1999dcd748fcf76450561c59ebc23Harvest139374982022-09-25 16:55:182 days 9 hrs ago0xc0c0b124a3806e604afeae8c1215ef18b6811186OUT0x951accccfdf619d3cd8cfe0e4823d8e80354eb410 AVAX0.0081923100
0xba7925bbc73162cbb2b15065b2fb4906993f1264ee120ea95972119258352c570x4ea4c6b3139363432022-09-25 16:24:552 days 10 hrs ago0xc0c0b124a3806e604afeae8c1215ef18b6811186OUT0x2e1d0c56c6913fd6135f887080f7a14123a142a80 AVAX0.0212157100
0x512360a5eb1857717f9ceb7fb51d352051669cdaa1b49c3b7e4e0eeb1d5fb3be0xab07211e139358162022-09-25 16:07:222 days 10 hrs ago0xc0c0b124a3806e604afeae8c1215ef18b6811186OUT0x2e1d0c56c6913fd6135f887080f7a14123a142a80 AVAX0.0210672100
[ Download CSV Export 
Parent Txn Hash Block From To Value
Loading

Contract Name:
0

Compiler Version
0

Optimization Enabled:
0

Other Settings:
-NA-
Block Transaction Gas Used Reward
Age Block Fee Address BC Fee Address Voting Power Jailed Incoming
Block Uncle Number Difficulty Gas Used Reward
Loading